[[{"header":{"parameterUnit":"m.s-1","parameterCategory":1,"la1":30.2991,"la2":30.254,"lo1":-89.0895,"lo2":-89.0444,"dy":0.0017,"dx":0.0017,"nx":28,"ny":28,"refTime":"2024-02-04T09:00:00:Z","depth":0,"parameterNumber":2,"parameterNumberName":"U-component_of_WINDS"},"data":[0,0,0,0,0,0,0,0,0,0,0,0,0,0,0,0,0,0,0,0,0,0,0,0,0,0,0,0,0,0,0,0,0,0,0,0,0,0,0,0,0,0,0,0,0,0,0,0,0,0,0,0,0,0,0,0,0,0,-0.5832,-0.5833,0,-0.5895,-0.5895,-0.5896,-0.5903,-0.5903,-0.5902,-0.5902,-0.5967,-0.5969,-0.5972,0,0,0,0,0,0,0,0,0,0,0,0,0,-0.572,-0.5722,-0.5832,-0.5833,-0.5834,-0.5894,-0.5895,-0.5896,-0.5904,-0.5903,-0.5902,-0.5901,-0.5966,-0.5969,-0.5972,0,0,0,0,0,0,0,0,0,0,0,0,0,-0.5774,-0.5722,-0.5832,-0.5845,-0.5846,-0.5894,-0.5895,-0.5896,-0.5904,-0.5903,-0.5902,-0.5901,-0.5966,-0.5969,-0.5972,-0.6013,0,0,-0.5983,-0.5985,0,0,0,0,0,0,0,0,-0.5771,-0.5778,-0.5842,-0.5844,-0.5846,-0.589,-0.588,-0.5935,-0.5904,-0.5882,-0.5902,-0.59,-0.5942,-0.5948,-0.5962,-0.6016,-0.6018,-0.5983,-0.5985,-0.5987,-0.5988,0,0,0,0,0,0,0,-0.5767,-0.5776,-0.5857,-0.5843,-0.5845,-0.5847,-0.5854,-0.589,-0.5917,-0.5884,-0.5884,-0.5892,-0.5943,-0.5958,-0.5963,-0.6019,-0.5983,-0.5986,-0.5988,-0.599,-0.6109,-0.611,0,0,0,0,0,0,-0.5761,-0.5772,-0.5855,-0.5859,-0.5805,-0.585,-0.5858,-0.5877,-0.5916,-0.5921,-0.5892,-0.5892,-0.5953,-0.5959,-0.5966,-0.6015,-0.5987,-0.599,-0.5992,-0.6108,-0.6109,-0.611,0,0,0,0,0,0,-0.5758,-0.5768,-0.5852,-0.5816,-0.5827,-0.5853,-0.5875,-0.5879,-0.5894,-0.5923,-0.5928,-0.5903,-0.5952,-0.5961,-0.6001,-0.6018,-0.5992,-0.5995,-0.6107,-0.6108,-0.611,-0.6115,0,0,0,0,0,0,-0.5755,-0.5767,-0.5783,-0.5816,-0.5828,-0.5886,-0.5876,-0.5881,-0.5899,-0.5899,-0.5934,-0.5939,-0.5952,-0.5995,-0.6004,-0.6022,-0.5998,-0.6105,-0.6107,-0.6109,-0.6113,-0.6116,-0.6119,0,0,0,0,0,-0.5751,-0.5782,-0.5784,-0.5793,-0.5848,-0.5887,-0.5894,-0.5909,-0.5901,-0.5917,-0.5935,-0.5938,-0.6014,-0.5999,-0.6009,-0.6028,-0.6104,-0.6107,-0.6109,-0.6112,-0.6116,-0.6119,0,0,0,0,0,0,-0.5751,-0.5787,-0.5789,-0.5831,-0.5856,-0.5888,-0.5909,-0.5912,-0.5941,-0.5939,-0.5956,-0.5964,-0.6003,-0.602,-0.6003,-0.6069,-0.6058,-0.6063,-0.6057,-0.6061,-0.6064,-0.606,-0.6001,0,0,0,0,0,-0.5756,-0.5784,-0.5814,-0.5848,-0.5861,-0.5882,-0.59,-0.5909,-0.5935,-0.5946,-0.5968,-0.5994,-0.6024,-0.6043,-0.6072,-0.6115,-0.6123,-0.6133,-0.6136,-0.6138,-0.6142,-0.6166,-0.6171,-0.6118,-0.6118,-0.6118,0,0,-0.5766,-0.5789,-0.5806,-0.5849,-0.5869,-0.5898,-0.5891,-0.5923,-0.5944,-0.5951,-0.599,-0.6007,-0.6037,-0.6078,-0.6098,-0.6093,-0.6158,-0.6141,-0.6143,-0.6146,-0.6169,-0.6174,-0.6178,-0.612,-0.612,-0.6119,0,0,-0.5801,-0.582,-0.5851,-0.5872,-0.5902,-0.5916,-0.5923,-0.5955,-0.5966,-0.6005,-0.6011,-0.6037,-0.6088,-0.6109,-0.6126,-0.6167,-0.617,-0.6176,-0.6191,-0.6214,-0.6219,-0.6222,-0.6237,-0.6242,-0.618,-0.618,-0.618,0,-0.581,-0.5854,-0.5867,-0.5898,-0.5917,-0.5923,-0.5954,-0.5973,-0.6012,-0.6025,-0.6019,-0.6082,-0.6103,-0.615,-0.6159,-0.6173,-0.6182,-0.6173,-0.6217,-0.6221,-0.6224,-0.6239,-0.6244,-0.618,-0.618,-0.618,-0.618,0,-0.5864,-0.5894,-0.5915,-0.5952,-0.5973,-0.6004,-0.6022,-0.6041,-0.6048,-0.6063,-0.6102,-0.6127,-0.6161,-0.6172,-0.6179,-0.622,-0.6216,-0.6213,-0.6203,-0.623,-0.6243,-0.6249,-0.6181,-0.6181,-0.618,-0.618,0,0,-0.5902,-0.5944,-0.5951,-0.5968,-0.6001,-0.6025,-0.6056,-0.6088,-0.6105,-0.6131,-0.6157,-0.62,-0.6197,-0.6217,-0.6226,-0.6246,-0.6276,-0.6241,-0.6241,-0.6247,-0.6323,-0.6325,-0.6331,-0.6278,-0.6279,-0.628,-0.632,0,-0.594,-0.5995,-0.6008,-0.6055,-0.6083,-0.6089,-0.6116,-0.6139,-0.6153,-0.6179,-0.6195,-0.6225,-0.6219,-0.6231,-0.6251,-0.6268,-0.6292,-0.6266,-0.6304,-0.6305,-0.6297,-0.6338,-0.6341,-0.6378,-0.6326,-0.6326,-0.6327,0,-0.5993,-0.6019,-0.6069,-0.6098,-0.611,-0.6134,-0.6165,-0.6189,-0.6216,-0.6225,-0.6246,-0.6253,-0.6285,-0.6272,-0.6317,-0.6299,-0.6315,-0.6326,-0.6328,-0.6333,-0.6318,-0.6345,-0.639,-0.6396,-0.6336,-0.6335,-0.6334,0,-0.6015,-0.6063,-0.61,-0.6113,-0.6148,-0.6165,-0.618,-0.6205,-0.6224,-0.625,-0.6262,-0.6292,-0.6309,-0.6332,-0.6347,-0.6336,-0.6391,-0.6379,-0.64,-0.6399,-0.6412,-0.6411,-0.6461,-0.6421,-0.6421,-0.6421,-0.6421,0,-0.6058,-0.6089,-0.611,-0.6133,-0.6167,-0.6181,-0.6214,-0.623,-0.6252,-0.6277,-0.6284,-0.6307,-0.6325,-0.6351,-0.6363,-0.6398,-0.6406,-0.6414,-0.6417,-0.6414,-0.6413,-0.6426,-0.6424,-0.6422,-0.6422,-0.6422,-0.6421,0,-0.609,-0.6106,-0.6145,-0.6174,-0.6182,-0.6206,-0.6231,-0.6253,-0.6266,-0.6299,-0.6307,-0.6329,-0.636,-0.6376,-0.6415,-0.6423,-0.6463,-0.6464,-0.6454,-0.6456,-0.6475,-0.6473,-0.6535,-0.6544,-0.6498,-0.6498,-0.6498,0,-0.6116,-0.614,-0.6171,-0.6188,-0.6203,-0.6231,-0.625,-0.6263,-0.6283,-0.6314,-0.6332,-0.6363,-0.6389,-0.6438,-0.6458,-0.6487,-0.649,-0.6509,-0.6494,-0.6491,-0.6491,-0.6489,-0.6492,-0.6512,-0.6513,-0.6513,-0.6514,0,-0.6162,-0.6168,-0.6194,-0.6223,-0.6245,-0.6269,-0.6292,-0.6306,-0.6323,-0.6344,-0.6376,-0.6396,-0.6435,-0.6466,-0.6497,-0.6513,-0.6516,-0.6518,-0.6524,-0.6522,-0.6515,-0.652,-0.6462,-0.6517,-0.6516,-0.6516,-0.6516,-0.6516,-0.6192,-0.6213,-0.6238,-0.6267,-0.6286,-0.6307,-0.6329,-0.6345,-0.6371,-0.6404,-0.641,-0.6443,-0.6468,-0.651,-0.6527,-0.6553,-0.6549,-0.6558,-0.6561,-0.6563,-0.6564,-0.651,-0.6559,-0.6559,-0.6559,-0.6558,-0.6558,0,-0.6238,-0.6254,-0.628,-0.6312,-0.6335,-0.6335,-0.6361,-0.638,-0.6409,-0.6432,-0.6456,-0.6492,-0.6522,-0.6543,-0.6573,-0.659,-0.6592,-0.6598,-0.6597,-0.6601,-0.6566,-0.6557,-0.6595,-0.6595,-0.6595,-0.6595,-0.6595,-0.6595,-0.6265,-0.6301,-0.631,-0.6354,-0.637,-0.6402,-0.6417,-0.6436,-0.6455,-0.6494,-0.6519,-0.6532,-0.6554,-0.6585,-0.6613,-0.6618,-0.6629,-0.6634,-0.664,-0.6607,-0.6603,-0.66,-0.6592,-0.6636,-0.6637,-0.6673,-0.6673,-0.6673]},{"header":{"parameterUnit":"m.s-1","parameterCategory":1,"la1":30.2991,"la2":30.254,"lo1":-89.0895,"lo2":-89.0444,"dy":0.0017,"dx":0.0017,"nx":28,"ny":28,"refTime":"2024-02-04T09:00:00:Z","depth":0,"parameterNumber":3,"parameterNumberName":"V-component_of_WINDS"},"data":[0,0,0,0,0,0,0,0,0,0,0,0,0,0,0,0,0,0,0,0,0,0,0,0,0,0,0,0,0,0,0,0,0,0,0,0,0,0,0,0,0,0,0,0,0,0,0,0,0,0,0,0,0,0,0,0,0,0,-6.6758,-6.6758,0,-6.6828,-6.6829,-6.6829,-6.6769,-6.6766,-6.6764,-6.6762,-6.6828,-6.6832,-6.6836,0,0,0,0,0,0,0,0,0,0,0,0,0,-6.6567,-6.6571,-6.6758,-6.6759,-6.6759,-6.6828,-6.6829,-6.683,-6.6769,-6.6766,-6.6763,-6.676,-6.6827,-6.6832,-6.6837,0,0,0,0,0,0,0,0,0,0,0,0,0,-6.6645,-6.6572,-6.6757,-6.6738,-6.6737,-6.6828,-6.6829,-6.683,-6.677,-6.6766,-6.6763,-6.6759,-6.6825,-6.6831,-6.6837,-6.695,0,0,-6.6856,-6.6859,0,0,0,0,0,0,0,0,-6.6641,-6.6652,-6.674,-6.6739,-6.6738,-6.6786,-6.6786,-6.687,-6.6771,-6.6757,-6.6762,-6.6757,-6.6817,-6.6824,-6.6845,-6.6953,-6.6956,-6.6857,-6.686,-6.6863,-6.6865,0,0,0,0,0,0,0,-6.6635,-6.6649,-6.6785,-6.6741,-6.674,-6.6724,-6.6731,-6.6802,-6.6807,-6.6758,-6.6754,-6.6763,-6.6816,-6.6839,-6.6846,-6.6957,-6.6857,-6.6862,-6.6866,-6.6868,-6.7162,-6.7166,0,0,0,0,0,0,-6.6633,-6.6644,-6.6783,-6.6787,-6.6679,-6.673,-6.6738,-6.6774,-6.6806,-6.6807,-6.6766,-6.676,-6.683,-6.6839,-6.6848,-6.6983,-6.6863,-6.6869,-6.6872,-6.7158,-6.7163,-6.7167,0,0,0,0,0,0,-6.6629,-6.6646,-6.678,-6.6715,-6.6731,-6.6738,-6.6779,-6.6778,-6.6801,-6.6812,-6.6812,-6.679,-6.6828,-6.6839,-6.6926,-6.6984,-6.6872,-6.6877,-6.7153,-6.7159,-6.7165,-6.7253,0,0,0,0,0,0,-6.6624,-6.6645,-6.6688,-6.6716,-6.6735,-6.6858,-6.6782,-6.6782,-6.6812,-6.6805,-6.6834,-6.6835,-6.6826,-6.6917,-6.6932,-6.6991,-6.6882,-6.7148,-6.7156,-6.7163,-6.7245,-6.7261,-6.7275,0,0,0,0,0,-6.6617,-6.6709,-6.6691,-6.6708,-6.679,-6.6862,-6.6872,-6.6861,-6.6817,-6.6861,-6.6868,-6.6834,-6.6975,-6.6926,-6.6942,-6.7004,-6.7144,-6.7154,-6.7163,-6.7238,-6.7258,-6.7275,0,0,0,0,0,0,-6.6685,-6.6712,-6.6692,-6.6796,-6.6828,-6.6851,-6.6906,-6.6882,-6.6925,-6.6916,-6.6898,-6.6905,-6.6997,-6.7008,-6.6953,-6.7115,-6.7052,-6.7065,-6.7104,-6.7123,-6.7138,-6.7134,-6.6887,0,0,0,0,0,-6.6712,-6.677,-6.679,-6.688,-6.6897,-6.6899,-6.693,-6.6919,-6.6949,-6.6962,-6.6975,-6.7005,-6.7056,-6.709,-6.7138,-6.7246,-6.7252,-6.7296,-6.7312,-6.7324,-6.7336,-6.7395,-6.7415,-6.7198,-6.7198,-6.7198,0,0,-6.6769,-6.6791,-6.6828,-6.6894,-6.6917,-6.6976,-6.691,-6.6975,-6.7019,-6.6971,-6.7054,-6.7066,-6.7098,-6.7196,-6.724,-6.7209,-6.7397,-6.7336,-6.7346,-6.7351,-6.7407,-6.7427,-6.7446,-6.7204,-6.7203,-6.7202,0,0,-6.6903,-6.6925,-6.7003,-6.7028,-6.7064,-6.7066,-6.7084,-6.7113,-6.7119,-6.7203,-6.7168,-6.7219,-6.7307,-6.7332,-6.7356,-6.7501,-6.7472,-6.7517,-6.7597,-6.7655,-6.7672,-6.7687,-6.774,-6.7759,-6.7528,-6.7529,-6.7529,0,-6.6968,-6.7058,-6.7046,-6.7115,-6.7145,-6.7106,-6.7185,-6.7208,-6.7258,-6.7279,-6.7244,-6.7355,-6.7374,-6.7478,-6.7514,-6.7534,-6.7555,-6.7514,-6.7671,-6.7686,-6.77,-6.775,-6.777,-6.7534,-6.7533,-6.7533,-6.7532,0,-6.7137,-6.72,-6.7258,-6.731,-6.7346,-6.7419,-6.7417,-6.7455,-6.7441,-6.7446,-6.7531,-6.7553,-6.7605,-6.7628,-6.7614,-6.7731,-6.7711,-6.7674,-6.7611,-6.7726,-6.7773,-6.7792,-6.7542,-6.754,-6.7538,-6.7537,0,0,-6.7315,-6.736,-6.7382,-6.7406,-6.7444,-6.7491,-6.7562,-6.7615,-6.7649,-6.7684,-6.7743,-6.7819,-6.7786,-6.7814,-6.7802,-6.7852,-6.7967,-6.7809,-6.7809,-6.7839,-6.8098,-6.8127,-6.8149,-6.7948,-6.7951,-6.7954,-6.8096,0,-6.7451,-6.7578,-6.757,-6.7688,-6.7746,-6.7711,-6.7773,-6.7802,-6.7809,-6.7858,-6.7864,-6.7919,-6.787,-6.7887,-6.7935,-6.7943,-6.8019,-6.7933,-6.8002,-6.8005,-6.7997,-6.8174,-6.8204,-6.8337,-6.8114,-6.8117,-6.8119,0,-6.7627,-6.7672,-6.7797,-6.7828,-6.7852,-6.7908,-6.7957,-6.8004,-6.8037,-6.8038,-6.807,-6.805,-6.8121,-6.8056,-6.8153,-6.8095,-6.8122,-6.8131,-6.8136,-6.8142,-6.807,-6.8186,-6.8378,-6.8399,-6.8148,-6.8146,-6.8144,0,-6.7746,-6.7837,-6.7924,-6.7945,-6.7983,-6.8023,-6.8041,-6.807,-6.8103,-6.8144,-6.8165,-6.8214,-6.8241,-6.8278,-6.8272,-6.8225,-6.8371,-6.8306,-6.8374,-6.8374,-6.8407,-6.8405,-6.8608,-6.8424,-6.8423,-6.8423,-6.8422,0,-6.79,-6.7978,-6.7978,-6.8032,-6.8119,-6.8108,-6.8193,-6.8205,-6.8232,-6.8287,-6.8258,-6.8309,-6.8297,-6.8348,-6.8343,-6.8425,-6.8437,-6.8439,-6.8437,-6.8442,-6.8442,-6.8461,-6.8452,-6.8428,-6.8427,-6.8426,-6.8425,0,-6.8047,-6.8051,-6.8144,-6.8173,-6.8182,-6.8245,-6.8269,-6.8319,-6.8323,-6.8393,-6.8409,-6.8415,-6.8474,-6.8471,-6.8536,-6.8533,-6.8634,-6.8621,-6.8625,-6.8622,-6.8691,-6.8685,-6.8913,-6.8943,-6.8739,-6.8741,-6.8742,0,-6.8146,-6.8206,-6.8242,-6.8278,-6.8299,-6.8356,-6.839,-6.8382,-6.8418,-6.8461,-6.8506,-6.8562,-6.8607,-6.8702,-6.8712,-6.8762,-6.875,-6.8826,-6.8757,-6.8761,-6.8752,-6.8749,-6.8755,-6.884,-6.8842,-6.8844,-6.8846,0,-6.832,-6.832,-6.8371,-6.8424,-6.8467,-6.8507,-6.8544,-6.8574,-6.8569,-6.8612,-6.8673,-6.8708,-6.8776,-6.8832,-6.8881,-6.8896,-6.8871,-6.8868,-6.8886,-6.8893,-6.8893,-6.8895,-6.8663,-6.8862,-6.8861,-6.886,-6.8859,-6.8858,-6.8447,-6.8499,-6.8534,-6.8593,-6.862,-6.8656,-6.8706,-6.8717,-6.8769,-6.8825,-6.8816,-6.8885,-6.8916,-6.8979,-6.8999,-6.9052,-6.9024,-6.9051,-6.9058,-6.9065,-6.9073,-6.8884,-6.906,-6.9059,-6.9059,-6.9059,-6.9058,0,-6.8621,-6.8643,-6.8697,-6.8751,-6.8797,-6.8771,-6.8811,-6.8851,-6.8912,-6.8944,-6.899,-6.906,-6.9115,-6.913,-6.9182,-6.9221,-6.9211,-6.9236,-6.9233,-6.9237,-6.9094,-6.9073,-6.9243,-6.9243,-6.9243,-6.9243,-6.9243,-6.9243,-6.8718,-6.8805,-6.8809,-6.891,-6.8929,-6.8998,-6.9024,-6.9056,-6.9082,-6.9163,-6.921,-6.9219,-6.9245,-6.9299,-6.9348,-6.9351,-6.9372,-6.9401,-6.9399,-6.9266,-6.9247,-6.9229,-6.921,-6.9406,-6.9406,-6.9538,-6.9539,-6.954]}]]